Weather History for KWLD - August, 2013

Change the Weather History Date:

Tuesday, August 13, 2013

  Actual Average Record
Temperature  
Mean Temperature 76 °F -  
Max Temperature 82 °F 89 °F 108 °F (2010)
Min Temperature 69 °F 66 °F 59 °F (2002)
Cooling Degree Days 10    
Growing Degree Days 26 (Base 50)    
Moisture  
Dew Point 70 °F    
Average Humidity 93    
Maximum Humidity 100    
Minimum Humidity 63    
Precipitation  
Precipitation 0.16 in - - ()
Sea Level Pressure  
Sea Level Pressure 30.06 in    
Wind  
Wind Speed 9 mph (ENE)    
Max Wind Speed 26 mph    
Max Gust Speed 39 mph    
Visibility 6 miles    
Events Fog , Rain , Thunderstorm    
Averages and records for this station are not official NWS values.
T = Trace of Precipitation, MM = Missing Value Source: NWS Daily Summary

Daily Weather History Graph

Daily Weather History Graph

Search for Another Location

Airport or City:

Trip Planner

Search our weather history database for the weather conditions in past years. The results will help you decide how hot, cold, wet, or windy it might be!

Date:

Astronomy

Aug. 13, 2013 Rise Set
Actual Time 6:43 AM CDT 8:22 PM CDT
Civil Twilight 6:15 AM CDT 8:49 PM CDT
Nautical Twilight 5:41 AM CDT 9:23 PM CDT
Astronomical Twilight 5:06 AM CDT 9:58 PM CDT
Moon 1:28 PM CDT (8/13) No Moon Set
Length of Visible Light 14h 34m
Length of Day
13h 38m
Waxing Crescent, 42% of the Moon is Illuminated
Aug 13
Waxing Crescent
Aug 14
First Quarter
Aug 20
Full
Aug 28
Last Quarter
Sep 5
New

Hourly Weather History & Observations

Time (CDT) Temp. Heat Index Dew Point Humidity Pressure Visibility Wind Dir Wind Speed Gust Speed Precip Events Conditions
12:16 AM 73.4 °F - 69.8 °F 88% 30.06 in 10.0 mi WSW 20.7 mph 32.2 mph N/A Thunderstorm Thunderstorm
12:34 AM 69.8 °F - 69.8 °F 100% 30.07 in 1.8 mi West 16.1 mph - N/A Rain , Thunderstorm Heavy Thunderstorms and Rain
12:46 AM 71.6 °F - 69.8 °F 94% 30.06 in 2.0 mi West 4.6 mph - N/A Rain , Thunderstorm Heavy Thunderstorms and Rain
12:51 AM 71.6 °F - 71.6 °F 100% 30.05 in 3.0 mi Calm Calm - N/A Rain , Thunderstorm Thunderstorms and Rain
12:54 AM 71.1 °F - 71.1 °F 100% 30.02 in 4.0 mi East 3.5 mph - N/A Rain , Thunderstorm Thunderstorms and Rain
1:28 AM 71.6 °F - 71.6 °F 100% 30.03 in 7.0 mi SSE 4.6 mph - N/A Rain Rain
1:54 AM 72.0 °F - 70.0 °F 93% 29.98 in 9.0 mi ENE 6.9 mph - N/A Rain Light Rain
2:54 AM 72.0 °F - 70.0 °F 93% 30.01 in 10.0 mi ENE 5.8 mph - 0.01 in   Clear
3:54 AM 71.1 °F - 70.0 °F 96% 29.99 in 10.0 mi WSW 3.5 mph - 0.01 in   Partly Cloudy
4:54 AM 70.0 °F - 70.0 °F 100% 30.01 in 10.0 mi Calm Calm - N/A   Mostly Cloudy
5:54 AM 71.1 °F - 70.0 °F 96% 30.00 in 10.0 mi East 3.5 mph - 0.01 in   Mostly Cloudy
6:54 AM 71.1 °F - 71.1 °F 100% 29.99 in 10.0 mi Calm Calm - 0.01 in   Scattered Clouds
7:54 AM 72.0 °F - 71.1 °F 97% 30.01 in 10.0 mi East 3.5 mph - N/A   Clear
8:54 AM 73.0 °F - 71.1 °F 93% 30.04 in 10.0 mi ENE 4.6 mph - 0.01 in   Overcast
9:54 AM 73.0 °F - 72.0 °F 96% 30.06 in 3.0 mi North 8.1 mph - N/A Rain Rain
10:54 AM 73.9 °F - 73.0 °F 97% 30.07 in 8.0 mi NNE 11.5 mph - N/A Rain Light Rain
11:54 AM 73.9 °F - 69.1 °F 85% 30.08 in 10.0 mi East 9.2 mph - N/A   Mostly Cloudy
12:54 PM 78.1 °F - 71.1 °F 79% 30.07 in 10.0 mi ENE 8.1 mph - 0.01 in   Scattered Clouds
1:54 PM 81.0 °F 84.4 °F 70.0 °F 69% 30.04 in 10.0 mi ENE 10.4 mph - 0.02 in   Partly Cloudy
2:54 PM 82.9 °F 87.0 °F 70.0 °F 65% 30.03 in 10.0 mi East 11.5 mph 18.4 mph 0.01 in   Clear
3:54 PM 82.9 °F 86.5 °F 69.1 °F 63% 30.01 in 10.0 mi East 9.2 mph 16.1 mph 0.01 in   Scattered Clouds
5:38 PM 73.4 °F - 69.8 °F 88% 30.07 in 10.0 mi North 26.5 mph 39.1 mph 0.01 in Thunderstorm Overcast
5:46 PM 69.8 °F - 68.0 °F 94% 30.09 in 1.0 mi North 26.5 mph 39.1 mph 0.01 in Rain , Thunderstorm Rain
5:48 PM 69.8 °F - 68.0 °F 94% 30.10 in 0.5 mi North 20.7 mph 33.4 mph 0.01 in Fog , Rain , Thunderstorm Heavy Rain
5:54 PM 69.1 °F - 69.1 °F 100% 30.09 in 0.2 mi NE 10.4 mph 32.2 mph 0.01 in Fog , Rain , Thunderstorm Heavy Thunderstorms and Rain
6:08 PM 69.8 °F - 69.8 °F 100% 30.10 in 0.8 mi East 12.7 mph - N/A Rain , Thunderstorm Heavy Thunderstorms and Rain
6:11 PM 69.8 °F - 69.8 °F 100% 30.09 in 1.2 mi East 10.4 mph - N/A Rain Heavy Rain
6:16 PM 69.8 °F - 69.8 °F 100% 30.09 in 2.0 mi East 8.1 mph 17.3 mph N/A Rain , Thunderstorm Heavy Rain
6:24 PM 69.8 °F - 68.0 °F 94% 30.10 in 2.5 mi East 5.8 mph - N/A Rain , Thunderstorm Rain
6:30 PM 69.8 °F - 68.0 °F 94% 30.10 in 4.0 mi ESE 3.5 mph - N/A Rain Rain
6:54 PM 69.1 °F - 68.0 °F 96% 30.08 in 2.5 mi Calm Calm - N/A Rain Rain
7:02 PM 69.8 °F - 66.2 °F 88% 30.10 in 4.0 mi Calm Calm - 0.00 in Rain Light Rain
7:54 PM 69.1 °F - 66.9 °F 93% 30.07 in 10.0 mi WNW 4.6 mph - N/A   Mostly Cloudy
8:54 PM 70.0 °F - 68.0 °F 93% 30.01 in 10.0 mi ENE 3.5 mph - 0.01 in   Scattered Clouds
9:54 PM 69.1 °F - 69.1 °F 100% 30.08 in 8.0 mi Calm Calm - 0.02 in   Clear
10:54 PM 69.1 °F - 69.1 °F 100% 30.10 in 7.0 mi North 3.5 mph - 0.01 in   Clear
11:54 PM 70.0 °F - 69.1 °F 97% 30.10 in 10.0 mi NE 3.5 mph - 0.01 in   Partly Cloudy